Terug naar catalogus

DELTA 1 DEB

ActiefLEO
NORAD 7185·DEBRIS·🇺🇸 United States

Gelanceerd Nov 6, 1973 vanaf Vandenberg Space Force Base

Loading…

Volgende Passages (komende 24 uur)

TLE

VersSource: Space-Track

Epoch: Sep 13, 2026, 09:01 UTC

1 07185U 73086EW  26256.37629125  .00000212  00000-0  22582-2 0  9997
2 07185 101.8435  40.4683 0146129 148.0074 239.8418 12.23713287352716

Volg DELTA 1 DEB in realtime met AllMySat

Download on the App Store